• In Deutschland
  • Länderverzeichnis
  • Für 7 Tage
  • Wassertemperatur
  • Satellitenkarten
  • Wetterkarte
  • Widgets
  • user-avatar
    Anmelden

    Stündliche Wetter Bregenz

    Heute, 17 August, Donnerstag

    Zeit Temperatur Niederschläge Wind Luftdruck Luftfeuchtigkeit
    00:00 +12°C° 0 mm 1 m/S 651 mmHg 88%
    01:00 +13°C° 0 mm 2 m/S 650 mmHg 85%
    02:00 +13°C° 0 mm 1 m/S 650 mmHg 85%
    03:00 +12°C° 0 mm 1 m/S 650 mmHg 85%
    04:00 +12°C° 0 mm 1 m/S 650 mmHg 85%
    05:00 +13°C° 0 mm 1 m/S 650 mmHg 83%
    06:00 +14°C° 0 mm 1 m/S 651 mmHg 82%
    07:00 +15°C° 0 mm 1 m/S 651 mmHg 78%
    08:00 +18°C° 0 mm 1 m/S 651 mmHg 71%
    09:00 +20°C° 0 mm 1 m/S 652 mmHg 65%
    10:00 +22°C° 0 mm 1 m/S 652 mmHg 58%
    11:00 +23°C° 0,1 mm 1 m/S 652 mmHg 56%
    12:00 +23°C° 0,1 mm 2 m/S 653 mmHg 55%
    13:00 +24°C° 0,1 mm 2 m/S 653 mmHg 53%
    14:00 +24°C° 0,2 mm 2 m/S 652 mmHg 57%
    15:00 +23°C° 0,2 mm 2 m/S 652 mmHg 60%
    16:00 +23°C° 0,2 mm 2 m/S 652 mmHg 64%
    17:00 +21°C° 0,2 mm 1 m/S 652 mmHg 72%
    18:00 +20°C° 0,2 mm 1 m/S 651 mmHg 79%
    19:00 +16°C° 0,2 mm 0 m/S 651 mmHg 87%
    20:00 +16°C° 0 mm 1 m/S 651 mmHg 89%
    21:00 +15°C° 0 mm 1 m/S 651 mmHg 90%
    22:00 +14°C° 0 mm 1 m/S 651 mmHg 92%
    23:00 +14°C° 0 mm 1 m/S 651 mmHg 92%

    Morgen, 18 August, Freitag

    Zeit Temperatur Niederschläge Wind Luftdruck Luftfeuchtigkeit
    00:00 +14°C° 0 mm 1 m/S 650 mmHg 91%
    01:00 +13°C° 0 mm 1 m/S 650 mmHg 91%
    02:00 +13°C° 0 mm 1 m/S 650 mmHg 90%
    03:00 +13°C° 0 mm 1 m/S 650 mmHg 90%
    04:00 +13°C° 0 mm 1 m/S 649 mmHg 89%
    05:00 +14°C° 0 mm 1 m/S 649 mmHg 88%
    06:00 +15°C° 0 mm 1 m/S 650 mmHg 86%
    07:00 +15°C° 0 mm 1 m/S 650 mmHg 85%
    08:00 +19°C° 0 mm 1 m/S 650 mmHg 77%
    09:00 +21°C° 0 mm 1 m/S 651 mmHg 68%
    10:00 +23°C° 0 mm 1 m/S 651 mmHg 60%
    11:00 +24°C° 0,2 mm 1 m/S 651 mmHg 58%
    12:00 +25°C° 0,2 mm 2 m/S 651 mmHg 55%
    13:00 +26°C° 0,2 mm 2 m/S 651 mmHg 53%
    14:00 +25°C° 0,6 mm 2 m/S 650 mmHg 58%
    15:00 +24°C° 0,6 mm 2 m/S 650 mmHg 63%
    16:00 +24°C° 0,6 mm 2 m/S 650 mmHg 68%
    17:00 +20°C° 1,4 mm 2 m/S 649 mmHg 76%
    18:00 +18°C° 1,4 mm 2 m/S 649 mmHg 85%
    19:00 +14°C° 1,4 mm 3 m/S 648 mmHg 93%
    20:00 +15°C° 6 mm 2 m/S 648 mmHg 94%
    21:00 +14°C° 6 mm 2 m/S 648 mmHg 96%
    22:00 +13°C° 6 mm 2 m/S 649 mmHg 98%
    23:00 +13°C° 5,6 mm 2 m/S 648 mmHg 97%

    übermorgen, 19 August, Samstag

    Zeit Temperatur Niederschläge Wind Luftdruck Luftfeuchtigkeit
    00:00 +12°C° 5,6 mm 2 m/S 648 mmHg 97%
    01:00 +11°C° 5,6 mm 3 m/S 648 mmHg 97%
    02:00 +10°C° 2,6 mm 2 m/S 648 mmHg 97%
    03:00 +10°C° 2,6 mm 2 m/S 648 mmHg 97%
    04:00 +11°C° 2,6 mm 1 m/S 648 mmHg 97%
    05:00 +11°C° 1,2 mm 1 m/S 648 mmHg 97%
    06:00 +10°C° 1,2 mm 1 m/S 649 mmHg 97%
    07:00 +9°C° 1,2 mm 2 m/S 649 mmHg 96%
    08:00 +10°C° 0,4 mm 2 m/S 649 mmHg 93%
    09:00 +12°C° 0,4 mm 2 m/S 649 mmHg 90%
    10:00 +13°C° 0,4 mm 2 m/S 650 mmHg 88%
    11:00 +14°C° 0,1 mm 2 m/S 650 mmHg 80%
    12:00 +15°C° 0,1 mm 2 m/S 650 mmHg 72%
    13:00 +16°C° 0,1 mm 2 m/S 650 mmHg 64%
    14:00 +16°C° 0,1 mm 2 m/S 650 mmHg 64%
    15:00 +16°C° 0,1 mm 2 m/S 650 mmHg 64%
    16:00 +16°C° 0,1 mm 2 m/S 650 mmHg 64%
    17:00 +14°C° 0,1 mm 2 m/S 650 mmHg 71%
    18:00 +13°C° 0,1 mm 1 m/S 650 mmHg 77%
    19:00 +12°C° 0,1 mm 1 m/S 650 mmHg 84%
    20:00 +11°C° 0 mm 1 m/S 650 mmHg 87%
    21:00 +10°C° 0 mm 1 m/S 650 mmHg 89%
    22:00 +8°C° 0 mm 1 m/S 650 mmHg 91%
    23:00 +8°C° 0 mm 1 m/S 650 mmHg 91%

    20 August, Sonntag

    Zeit Temperatur Niederschläge Wind Luftdruck Luftfeuchtigkeit
    00:00 +8°C° 0 mm 1 m/S 650 mmHg 90%
    01:00 +8°C° 0 mm 1 m/S 650 mmHg 90%
    02:00 +7°C° 0 mm 1 m/S 650 mmHg 91%
    03:00 +7°C° 0 mm 1 m/S 650 mmHg 91%
    04:00 +7°C° 0 mm 1 m/S 650 mmHg 92%
    05:00 +7°C° 0 mm 1 m/S 650 mmHg 91%
    06:00 +8°C° 0 mm 1 m/S 650 mmHg 89%
    07:00 +8°C° 0 mm 1 m/S 651 mmHg 88%
    08:00 +10°C° 0 mm 1 m/S 651 mmHg 79%
    09:00 +12°C° 0 mm 1 m/S 652 mmHg 70%
    10:00 +14°C° 0 mm 1 m/S 652 mmHg 61%
    11:00 +14°C° 0 mm 1 m/S 652 mmHg 56%
    12:00 +15°C° 0 mm 2 m/S 652 mmHg 51%
    13:00 +16°C° 0 mm 2 m/S 652 mmHg 46%
    14:00 +16°C° 0 mm 2 m/S 652 mmHg 46%
    15:00 +16°C° 0 mm 2 m/S 652 mmHg 46%
    16:00 +16°C° 0 mm 2 m/S 652 mmHg 47%
    17:00 +14°C° 0 mm 2 m/S 652 mmHg 56%
    18:00 +12°C° 0 mm 1 m/S 652 mmHg 65%
    19:00 +11°C° 0 mm 1 m/S 652 mmHg 74%
    20:00 +9°C° 0 mm 1 m/S 651 mmHg 77%
    21:00 +8°C° 0 mm 1 m/S 651 mmHg 80%
    22:00 +7°C° 0 mm 1 m/S 651 mmHg 83%
    23:00 +7°C° 0 mm 1 m/S 651 mmHg 83%

    21 August, Montag

    Zeit Temperatur Niederschläge Wind Luftdruck Luftfeuchtigkeit
    00:00 +6°C° 0 mm 1 m/S 651 mmHg 83%
    01:00 +6°C° 0 mm 1 m/S 651 mmHg 83%
    02:00 +6°C° 0 mm 1 m/S 651 mmHg 81%
    03:00 +6°C° 0 mm 1 m/S 650 mmHg 79%
    04:00 +6°C° 0 mm 1 m/S 650 mmHg 77%
    05:00 +7°C° 0 mm 1 m/S 651 mmHg 73%
    06:00 +8°C° 0 mm 1 m/S 651 mmHg 70%
    07:00 +9°C° 0 mm 1 m/S 651 mmHg 66%
    08:00 +11°C° 0 mm 1 m/S 652 mmHg 59%
    09:00 +14°C° 0 mm 1 m/S 652 mmHg 51%
    10:00 +18°C° 0 mm 1 m/S 653 mmHg 44%
    11:00 +18°C° 0 mm 1 m/S 653 mmHg 42%
    12:00 +19°C° 0 mm 1 m/S 653 mmHg 41%
    13:00 +20°C° 0 mm 1 m/S 653 mmHg 39%
    14:00 +20°C° 0 mm 1 m/S 652 mmHg 41%
    15:00 +20°C° 0 mm 1 m/S 652 mmHg 43%
    16:00 +20°C° 0 mm 1 m/S 652 mmHg 45%
    17:00 +18°C° 0 mm 1 m/S 651 mmHg 54%
    18:00 +15°C° 0 mm 1 m/S 651 mmHg 63%
    19:00 +13°C° 0 mm 1 m/S 650 mmHg 73%
    20:00 +12°C° 0 mm 1 m/S 650 mmHg 73%
    21:00 +11°C° 0 mm 1 m/S 650 mmHg 74%
    22:00 +10°C° 0 mm 1 m/S 650 mmHg 74%
    23:00 +10°C° 0 mm 1 m/S 650 mmHg 72%

    22 August, Dienstag

    Zeit Temperatur Niederschläge Wind Luftdruck Luftfeuchtigkeit
    00:00 +10°C° 0 mm 1 m/S 649 mmHg 70%
    01:00 +10°C° 0 mm 1 m/S 649 mmHg 69%
    02:00 +10°C° 0 mm 1 m/S 649 mmHg 68%
    03:00 +10°C° 0 mm 1 m/S 649 mmHg 67%
    04:00 +10°C° 0 mm 1 m/S 648 mmHg 66%
    05:00 +11°C° 0 mm 1 m/S 648 mmHg 67%
    06:00 +11°C° 0 mm 1 m/S 649 mmHg 67%
    07:00 +12°C° 0 mm 1 m/S 649 mmHg 68%
    08:00 +15°C° 0 mm 1 m/S 649 mmHg 61%
    09:00 +18°C° 0 mm 1 m/S 650 mmHg 54%
    10:00 +21°C° 0 mm 1 m/S 650 mmHg 47%
    11:00 +21°C° 0 mm 2 m/S 650 mmHg 46%
    12:00 +23°C° 0 mm 2 m/S 650 mmHg 44%
    13:00 +24°C° 0 mm 2 m/S 650 mmHg 43%
    14:00 +23°C° 0 mm 2 m/S 650 mmHg 45%
    15:00 +23°C° 0 mm 2 m/S 649 mmHg 47%
    16:00 +23°C° 0 mm 2 m/S 649 mmHg 49%
    17:00 +20°C° 0 mm 2 m/S 648 mmHg 58%
    18:00 +18°C° 0 mm 2 m/S 648 mmHg 67%
    19:00 +16°C° 0 mm 1 m/S 647 mmHg 76%
    20:00 +15°C° 0 mm 1 m/S 647 mmHg 78%
    21:00 +14°C° 0 mm 2 m/S 647 mmHg 80%
    22:00 +13°C° 0 mm 2 m/S 647 mmHg 81%
    23:00 +13°C° 0,2 mm 2 m/S 647 mmHg 82%
    Mehr zeigen